Torna al catalogo

STARLINK-4325

AttivoComunicazioniSSO
NORAD 53068·PAYLOAD·🇺🇸 United States

Lanciato Jul 11, 2022 da Vandenberg Space Force Base

Loading…

Prossimi Passaggi (prossime 24 ore)

TLE

AggiornatoSource: CelesTrak SupGP

Epoca: Sep 14, 2026, 21:52 UTC

1 53068C 22077AB  26257.91159722  .00072853  00000+0  22613-2 0  2575
2 53068  97.2855  73.6601 0001567  99.1053 190.9825 15.33405222    11

Traccia STARLINK-4325 in tempo reale con AllMySat

Download on the App Store